Location: Alexander
(41.3564°N, 81.5960°W)
Time: 14:47:33
(UTC+00:00)

Cosmos 44 - Pass Details

Date: 24 January 2021
Orbit: 572 x 790 km, 65.1° (Epoch: 01 March)

Event Time Altitude Azimuth Distance (km) Brightness Sun altitude
Rises 23:12:41 0° 201° (SSW) 2,926 7.2 -7.7°
Reaches altitude 10° 23:14:55 10° 198° (SSW) 2,055 6.3 -8.1°
Maximum altitude 23:19:31 62° 118° (ESE) 772 3.3 -8.9°
Drops below altitude 10° 23:24:29 10° 38° (NE) 2,211 5.4 -9.8°
Enters shadow 23:25:11 - 37° (NE) 2,481 5.7 -10.0°
